This demonstration page uses our WeatherBlox Daily Observations layout. Learn more.

Left ArrowRight Arrow

39.92423, -83.80882

Hourly Observations for April 18, 2020

Temp ( °F °C ) Dew Point ( °F °C ) Humidity (%) Winds ( mph kmh ) Pressure ( in mb ) Visibility ( mi km ) Precip ( " mm )
12:56 am 00:56 Cloudy 34 1.1 34 1.1 100 100 NNW 14 22 29.96 1015 7 11.26538 0 0
1:22 am 01:22 Cloudy 34 1 34 1 100 100 NNW 10 17 30 1016 9 14.48406 0 0
1:56 am 01:56 Cloudy 34 1.1 34 1.1 100 100 NNW 15 24 29.98 1015 7 11.26538 0 0
2:56 am 02:56 Cloudy 34 1.1 34 1.1 100 100 NNW 13 20 29.97 1015 10 16.0934 0.001 0.001
3:15 am 03:15 Cloudy 34 1 34 1 100 100 NNW 12 19 30.01 1016 10 16.0934 0 0
3:56 am 03:56 Cloudy 34 1.1 34 1.1 100 100 NNW 10 17 29.98 1015 10 16.0934 0 0
4:56 am 04:56 Cloudy 34 1.1 33 0.6 97 97 NW 9 15 30.01 1016 10 16.0934 0 0
5:56 am 05:56 Cloudy 34 1.1 33 0.6 97 97 NW 8 13 30.04 1017 10 16.0934 0 0
6:56 am 06:56 Cloudy 34 1.1 32 0 92 92 NW 8 13 30.06 1018 9 14.48406 0.01 0.254
7:18 am 07:18 Cloudy 34 1 32 0 93 93 NW 10 17 30.11 1020 10 16.0934 0 0
7:30 am 07:30 Mostly Cloudy 34 1 30 -1 87 87 NW 8 13 30.11 1020 10 16.0934 0 0
7:49 am 07:49 Partly Cloudy 34 1 32 0 93 93 NW 8 13 30.12 1020 9 14.48406 0 0
7:56 am 07:56 Mostly Sunny 34 1.1 32 0 92 92 NW 8 13 30.1 1019 9 14.48406 0 0
8:32 am 08:32 Mostly Cloudy 34 1 32 0 93 93 NW 12 19 30.13 1020 9 14.48406 0 0
8:54 am 08:54 Partly Cloudy 36 2 32 0 87 87 WNW 7 11 30.13 1020 10 16.0934 0 0
8:56 am 08:56 Mostly Sunny 35 1.7 32 0 89 89 NW 8 13 30.11 1020 10 16.0934 0 0
9:27 am 09:27 Mostly Cloudy 36 2 34 1 93 93 W 10 17 30.14 1020 8 12.87472 0 0
9:56 am 09:56 Mostly Cloudy 38 3.3 33 0.6 83 83 W 8 13 30.12 1020 10 16.0934 0 0
10:11 am 10:11 Partly Cloudy 39 4 34 1 81 81 WNW 9 15 30.14 1021 10 16.0934 0 0
10:56 am 10:56 Mostly Sunny 42 5.6 34 1.1 73 73 WNW 7 11 30.12 1020 10 16.0934 0 0
11:22 am 11:22 Mostly Cloudy 41 5 34 1 76 76 W 6 9 30.13 1020 10 16.0934 0 0
11:56 am 11:56 Mostly Cloudy 43 6.1 34 1.1 71 71 W 6 9 30.12 1020 10 16.0934 0 0
12:03 pm 12:03 Mostly Cloudy 45 7 34 1 66 66 WNW 7 11 30.12 1020 10 16.0934 0 0
12:56 pm 12:56 Mostly Cloudy 45 7.2 33 0.6 63 63 SW 8 13 30.1 1019 10 16.0934 0 0
1:56 pm 13:56 Cloudy 48 8.9 34 1.1 58 58 WSW 14 22 30.08 1019 10 16.0934 0 0
2:56 pm 14:56 Cloudy 49 9.4 33 0.6 55 55 WSW 9 15 30.06 1018 10 16.0934 0 0
3:56 pm 15:56 Mostly Cloudy 49 9.4 32 0 52 52 SSW 6 9 30.03 1017 10 16.0934 0 0
4:56 pm 16:56 Partly Cloudy 51 10.6 33 0.6 50 50 SW 15 24 29.99 1016 10 16.0934 0 0
5:56 pm 17:56 Mostly Sunny 51 10.6 34 1.1 52 52 WSW 15 24 29.98 1015 10 16.0934 0 0
6:56 pm 18:56 Mostly Sunny 51 10.6 34 1.1 52 52 SW 13 20 29.97 1015 10 16.0934 0 0
7:56 pm 19:56 Sunny 49 9.4 34 1.1 56 56 SW 8 13 29.96 1015 10 16.0934 0 0
8:56 pm 20:56 Clear 46 7.8 34 1.1 63 63 SSW 6 9 29.97 1015 10 16.0934 0 0
9:56 pm 21:56 Clear 45 7.2 34 1.1 66 66 S 6 9 29.97 1015 10 16.0934 0 0
10:56 pm 22:56 Clear 44 6.7 33 0.6 65 65 SSW 6 9 29.96 1015 10 16.0934 0 0
11:56 pm 23:56 Clear 44 6.7 33 0.6 65 65 SSW 9 15 29.95 1014 10 16.0934 0 0

Powered by AerisWeather